Regional Weather Roundup
Issued by NWS

Home | Current Version | Previous Version | Graphics & Text | Print | Product List | Glossary On
Versions: 1 2 3 4 5 6 7 8 9 10 11 12 13 14 15 16 17 18 19 20 21 22 23 24 25 26 27 28 29 30 31 32 33 34 35 36 37 38 39 40 41 42 43 44 45 46 47 48 49 50
000
ASUS43 KLMK 300210
RWRKY
KENTUCKY REGIONAL WEATHER ROUNDUP
NATIONAL WEATHER SERVICE LOUISVILLE KY
1000 PM EDT SAT APR 29 2017

NOTE "FAIR" INDICATES FEW OR NO CLOUDS BELOW 12,000 FEET
WITH NO SIGNIFICANT WEATHER AND/OR OBSTRUCTIONS TO VISIBILITY.

KYZ001>023-026-027-061>063-070>075-300300-
WESTERN AND SOUTH CENTRAL KENTUCKY

CITY           SKY/WX    TMP DP  RH WIND       PRES   REMARKS
PADUCAH        PTCLDY    79  65  62 S8        29.85R
HENDERSON        N/A    N/A N/A N/A MISG        N/A
OWENSBORO      PTCLDY    78  67  68 S10       29.89R
HOPKINSVILLE   CLEAR     80  65  59 S8        29.91R
BOWLING GREEN  PTCLDY    80  65  59 S8        29.95R
GLASGOW        HVY RAIN  78  64  62 S7        29.97R
$$

KYZ024-025-028>034-038-045-046-053-300300-
NORTH CENTRAL KENTUCKY

CITY           SKY/WX    TMP DP  RH WIND       PRES   REMARKS
LOUISVILLE/SDF MOCLDY    78  68  71 SE10      29.91R
LOUISVILLE/LOU PTCLDY    79  68  69 SE7       29.92R
FORT KNOX      CLEAR     77  65  68 S9        29.92F
$$

KYZ035>037-039>044-047>052-055>060-089>105-300300-
NORTHEAST KENTUCKY

CITY           SKY/WX    TMP DP  RH WIND       PRES   REMARKS
LEXINGTON      PTCLDY    77  65  66 SE7       29.99R
COVINGTON      CLOUDY    73  67  81 E7        29.97R
FRANKFORT      CLOUDY    75  65  70 SE8       29.95R
$$

KYZ054-064>069-076>088-106>120-300300-
SOUTHEAST KENTUCKY

CITY           SKY/WX    TMP DP  RH WIND       PRES   REMARKS
JACKSON        CLOUDY    79  63  57 SE3       30.04R
LONDON         PTCLDY    74  63  68 S3        30.03R
SOMERSET       PTCLDY    77  57  50 CALM      30.03R
MIDDLESBORO    CLOUDY    73  64  73 CALM      30.06R
MONTICELLO     CLOUDY    79  64  60 VRB5      30.03R
$$





USA.gov is the U.S. government's official web portal to all federal, state and local government web resources and services.